Location: Unspecified
(56.5167°N, 0.0000°E)
Time: 03:09:53
(UTC+02:00)

Cosmos 1674 - Visible Passes

Search period start: 29 August 2014 00:00
Search period end: 08 September 2014 00:00
Orbit: 514 x 544 km, 82.5° (Epoch: 25 August)

Date Brightness Start Highest point End Pass type
(mag) Time Alt. Az. Time Alt. Az. Time Alt. Az.
29 Aug 2.9 01:25:04 10° NNW 01:28:29 68° NW 01:28:29 68° NW visible
29 Aug 5.3 03:03:06 10° WNW 03:03:46 11° WNW 03:03:46 11° WNW visible
29 Aug 4.9 23:39:14 10° NNE 23:41:29 15° ENE 23:42:21 14° ENE visible
30 Aug 2.9 01:14:12 10° NNW 01:17:37 68° NNW 01:17:37 68° NNW visible
30 Aug 5.3 02:51:58 10° WNW 02:52:54 12° WNW 02:52:54 12° WNW visible
30 Aug 4.9 23:28:28 10° NNE 23:30:35 14° ENE 23:31:29 13° ENE visible
31 Aug 2.9 01:03:20 10° NNW 01:06:45 69° N 01:06:45 69° N visible
31 Aug 5.3 02:40:54 10° NW 02:42:02 12° WNW 02:42:02 12° WNW visible
31 Aug 5.0 23:17:43 10° NNE 23:19:41 13° ENE 23:20:37 13° ENE visible
01 Sep 2.9 00:52:28 10° N 00:55:54 68° N 00:55:54 68° N visible
01 Sep 5.2 02:29:52 10° NW 02:31:10 13° WNW 02:31:10 13° WNW visible
01 Sep 5.0 23:06:59 10° NNE 23:08:46 13° NE 23:09:46 12° ENE visible
02 Sep 2.9 00:41:36 10° N 00:45:03 67° NNE 00:45:03 67° NNE visible
02 Sep 5.2 02:18:50 10° NW 02:20:19 14° WNW 02:20:19 14° WNW visible
02 Sep 5.0 22:56:15 10° NNE 22:57:51 12° NE 22:58:55 11° ENE visible
03 Sep 2.9 00:30:44 10° N 00:34:11 65° NNE 00:34:11 65° NNE visible
03 Sep 5.2 02:07:50 10° NW 02:09:28 15° WNW 02:09:28 15° WNW visible
03 Sep 5.1 22:45:33 10° NNE 22:46:55 12° NE 22:48:04 11° ENE visible
04 Sep 3.0 00:19:51 10° N 00:23:20 63° NE 00:23:20 63° NE visible
04 Sep 5.1 01:56:50 10° NW 01:58:37 16° WNW 01:58:37 16° WNW visible
04 Sep 5.1 22:34:53 10° NE 22:36:00 11° NE 22:37:06 10° ENE visible
05 Sep 3.0 00:08:58 10° N 00:12:30 60° NE 00:12:30 60° NE visible
05 Sep 5.1 01:45:51 10° NW 01:47:46 17° WNW 01:47:46 17° WNW visible
05 Sep 5.1 22:24:19 10° NE 22:25:03 10° NE 22:25:47 10° ENE visible
05 Sep 3.0 23:58:05 10° N 00:01:39 58° NE 00:01:39 58° NE visible
06 Sep 5.0 01:34:52 10° NW 01:36:56 18° WNW 01:36:56 18° WNW visible
06 Sep 3.0 23:47:12 10° N 23:50:49 55° ENE 23:50:49 55° ENE visible
07 Sep 5.0 01:23:53 10° NW 01:26:06 19° WNW 01:26:06 19° WNW visible
07 Sep 3.1 23:36:18 10° N 23:39:59 52° ENE 23:39:59 52° ENE visible
